DW2822 Weather Reports


time (UTC)temp
F
wind
direction
speed
knots
gust
knots
rain 1hr
in
rain 24hr
in
rain mn
in
humidity
%
barometer
mb
20260507151534 55 191 3.5 6.1 0.00 0.00 0.00 65 1014.5
20260507150005 55 146 1.7 6.1 0.00 0.00 0.00 65 1014.5
20260507144503 55 166 2.6 5.2 0.00 0.00 0.00 64 1014.6
20260507143054 55 148 2.6 4.3 0.00 0.00 0.00 64 1014.7
20260507141553 55 154 2.6 7.0 0.00 0.00 0.00 64 1014.7
20260507140033 55 169 1.7 6.1 0.00 0.00 0.00 65 1014.8
20260507134535 55 176 2.6 6.1 0.00 0.00 0.00 65 1014.8
20260507133021 55 177 3.5 6.1 0.00 0.00 0.00 65 1014.9
20260507131521 55 98 0.9 3.5 0.00 0.00 0.00 65 1014.9
20260507124556 56 112 2.6 7.8 0.00 0.00 0.00 66 1014.9
20260507123037 56 71 5.2 7.8 0.00 0.00 0.00 66 1014.9
20260507121537 56 110 3.5 7.8 0.00 0.00 0.00 66 1014.9
20260507120001 57 104 5.2 8.7 0.00 0.00 0.00 67 1015.1
20260507114505 56 56 6.1 10.4 0.00 0.00 0.00 69 1015.2
20260507113058 55 84 2.6 7.0 0.00 0.00 0.00 73 1015.2
20260507111555 54 78 4.3 8.7 0.00 0.00 0.00 74 1015.2
20260507110036 53 68 5.2 8.7 0.00 0.00 0.00 75 1015.4
20260507104531 52 59 3.5 8.7 0.00 0.00 0.00 77 1015.5
20260507103025 51 78 3.5 7.0 0.00 0.00 0.00 78 1015.5
20260507101523 50 103 2.6 6.1 0.00 0.00 0.00 80 1015.6
20260507100048 48 86 3.5 6.1 0.00 0.00 0.00 80 1015.6
20260507094547 47 73 2.6 6.1 0.00 0.00 0.00 79 1015.6
20260507093043 47 120 1.7 5.2 0.00 0.00 0.00 78 1015.7
20260507091543 46 115 1.7 5.2 0.00 0.00 0.00 78 1015.6
20260507090010 46 85 3.5 5.2 0.00 0.00 0.00 78 1015.6
20260507084510 46 71 2.6 5.2 0.00 0.00 0.00 77 1015.6
20260507083003 45 98 1.7 4.3 0.00 0.00 0.00 77 1015.7
20260507081503 45 84 2.6 4.3 0.00 0.00 0.00 77 1015.5
20260507080042 45 83 2.6 7.0 0.00 0.00 0.00 77 1015.5
20260507074601 45 60 1.7 4.3 0.00 0.00 0.00 77 1015.5
20260507073042 45 85 2.6 4.3 0.00 0.00 0.00 77 1015.5
20260507071536 45 73 2.6 4.3 0.00 0.00 0.00 78 1015.4
20260507070115 45 85 2.6 3.5 0.00 0.00 0.00 77 1015.3
20260507064610 45 65 1.7 3.5 0.00 0.00 0.00 77 1015.1
20260507063057 45 73 2.6 4.3 0.00 0.00 0.00 77 1015.1
20260507061549 45 73 1.7 3.5 0.00 0.00 0.00 77 1015.1
20260507060043 45 66 1.7 3.5 0.00 0.00 0.00 77 1015.1
20260507054528 45 82 1.7 3.5 0.00 0.00 0.00 76 1015.0
20260507053007 45 82 1.7 3.5 0.00 0.00 0.00 76 1014.9
20260507051505 45 81 1.7 3.5 0.00 0.00 0.00 76 1014.9
20260507050040 45 63 1.7 3.5 0.00 0.00 0.00 76 1014.9
20260507044542 45 62 1.7 3.5 0.00 0.00 0.00 76 1014.8
20260507043031 45 61 0.9 2.6 0.00 0.00 0.00 76 1014.8
20260507041533 45 76 1.7 3.5 0.00 0.00 0.00 76 1014.7
20260507040113 45 55 1.7 4.3 0.00 0.00 0.00 76 1014.7
20260507034616 45 39 3.5 4.3 0.00 0.00 0.00 76 1014.7
20260507033104 45 46 2.6 5.2 0.00 0.00 0.00 76 1014.8
20260507031618 45 48 3.5 6.1 0.00 0.00 0.00 76 1014.9
20260507030031 45 44 2.6 5.2 0.00 0.00 0.00 76 1014.8
20260507024527 45 35 2.6 6.1 0.00 0.00 0.00 75 1014.8
20260507023010 45 63 3.5 6.1 0.00 0.00 0.00 75 1014.8
20260507021510 45 57 3.5 5.2 0.00 0.00 0.00 75 1014.8
20260507020045 45 39 2.6 4.3 0.00 0.00 0.00 75 1014.8
20260507014551 46 44 2.6 5.2 0.00 0.00 0.00 74 1014.8
20260507013047 46 21 2.6 5.2 0.00 0.00 0.00 74 1014.7
20260507011536 46 46 2.6 5.2 0.00 0.00 0.00 74 1014.8
20260507010002 46 44 2.6 4.3 0.00 0.00 0.00 73 1014.9
20260507004502 46 51 3.5 4.3 0.00 0.00 0.00 73 1014.8
20260507003054 46 51 1.7 4.3 0.00 0.00 0.00 73 1014.8
20260507001556 46 50 2.6 5.2 0.00 0.00 0.00 73 1014.9
20260507000032 46 49 2.6 5.2 0.00 0.00 0.00 72 1015.1
20260506234537 46 52 3.5 6.1 0.00 0.00 0.00 72 1014.9
20260506233034 47 58 3.5 6.1 0.00 0.00 0.00 72 1014.8
20260506231529 47 46 3.5 6.1 0.00 0.00 0.00 71 1014.9
20260506230106 47 39 4.3 6.1 0.00 0.00 0.00 70 1014.9
20260506224554 47 39 4.3 7.0 0.00 0.00 0.00 70 1014.9
20260506223049 47 70 4.3 7.0 0.00 0.00 0.00 69 1014.8
20260506221554 48 58 5.2 7.8 0.00 0.00 0.00 69 1014.9
20260506220029 48 44 5.2 7.8 0.00 0.00 0.00 68 1014.7
20260506214526 48 62 5.2 8.7 0.00 0.00 0.00 68 1014.7
20260506213018 48 53 5.2 8.7 0.00 0.00 0.00 67 1014.6
20260506211525 48 53 5.2 7.8 0.00 0.00 0.00 66 1014.5
20260506210052 49 45 4.3 7.8 0.00 0.00 0.00 65 1014.3
20260506204556 49 46 4.3 7.8 0.00 0.00 0.00 64 1014.3
20260506203040 49 36 5.2 7.8 0.00 0.00 0.00 63 1014.2
20260506201541 50 13 5.2 7.8 0.00 0.00 0.00 62 1014.0
20260506200032 50 15 5.2 8.7 0.00 0.00 0.00 61 1013.9
20260506194518 51 6 3.5 7.8 0.00 0.00 0.00 59 1013.7
20260506193004 51 27 2.6 6.1 0.00 0.00 0.00 58 1013.7
20260506191506 51 49 2.6 7.0 0.00 0.00 0.00 58 1013.6
20260506190046 52 45 2.6 7.8 0.00 0.00 0.00 57 1013.6
20260506184545 52 58 3.5 6.1 0.00 0.00 0.00 57 1013.5
20260506183043 53 75 2.6 5.2 0.00 0.00 0.00 57 1013.5
20260506181546 53 29 1.7 5.2 0.00 0.00 0.00 57 1013.5
20260506180027 53 33 3.5 6.1 0.00 0.00 0.00 57 1013.3
20260506174517 53 35 3.5 6.1 0.00 0.00 0.00 57 1013.4
20260506173022 54 36 3.5 7.0 0.00 0.00 0.00 57 1013.3
20260506171504 54 58 2.6 6.1 0.00 0.00 0.00 57 1013.2
20260506170038 54 23 2.6 6.1 0.00 0.00 0.00 57 1013.2
20260506164517 54 57 4.3 9.6 0.00 0.00 0.00 56 1013.1
20260506163012 54 43 4.3 8.7 0.00 0.00 0.00 57 1013.0
20260506161504 54 39 5.2 10.4 0.00 0.00 0.00 56 1013.1
20260506160050 55 20 3.5 7.0 0.00 0.00 0.00 57 1013.1
20260506154551 55 3 3.5 7.8 0.00 0.00 0.00 57 1013.1
20260506153043 55 56 4.3 8.7 0.00 0.00 0.00 57 1013.1